Flag for Germany Weather past 2 weeks in Kiel, Schleswig-Holstein, Germany

Now
73 °F

Sunny.


Feels Like: 77 °F
Forecast: 61 / 81 °F
Wind: 15 mph from East

Location: Kiel / Holtenau Civilian

Current Time: Jul 1, 2015 at 7:09:59 PM

Latest Report: Jul 1, 2015 at 5:50 PM


Visibility: 10 mi

Pressure: 30.21 "Hg

Humidity: 53%

Dew point: 55 °F

Location of KielLocation

Historic Weather in Kiel — Graph

°F

Kiel temperature yesterday

Maximum temperature yesterday: 72 °F (at 1:50 PM)
Minimum temperature yesterday: 61 °F (at 8:20 AM)
Average temperature yesterday: 66 °F

Past Weeks' High & Low Weather Summary

 TemperatureHumidityPressure
High73 °F (Jul 1, 1:20 PM)100% (Jun 24, 3:20 PM)30.27 "Hg (Jun 24, 3:20 PM)
Low46 °F (Jun 17, 6:50 AM)44% (Jul 1, 1:20 PM)29.65 "Hg (Jun 22, 6:20 PM)
Average61 °F70%30.00 "Hg
* Reported Jun 16 5:20 PM — Jul 1 5:50 PM, Kiel, Weather by CustomWeather, © 2015

Note: Actual official high and low records may vary slightly from our data, if they occured in-between our weather recording intervals... More about our weather records

Advertising

Kiel weather history for previous 24 hours

 ConditionsComfort  
Time TempWeatherWind HumidityBarometerVisibility
5:50 PM
Wed, Jul 1
73 °FSunny.15 mph53%30.21 "Hg10 mi
5:20 PM72 °FSunny.14 mph57%30.21 "Hg10 mi
4:50 PM73 °FSunny.15 mph53%30.21 "Hg10 mi
4:20 PM73 °FSunny.15 mph50%30.21 "Hg10 mi
3:50 PM72 °FSunny.15 mph53%30.21 "Hg10 mi
3:20 PM73 °FSunny.15 mph53%30.21 "Hg10 mi
2:50 PM72 °FSunny.15 mph53%30.21 "Hg10 mi
2:20 PM73 °FSunny.15 mph57%30.24 "Hg10 mi
1:50 PM73 °FPassing clouds.12 mph50%30.24 "HgN/A
1:20 PM73 °FSunny.12 mph44%30.24 "Hg10 mi
12:50 PM72 °FPassing clouds.10 mph47%30.24 "HgN/A
11:50 AM72 °FSunny.10 mph47%30.24 "Hg10 mi
11:20 AM72 °FPassing clouds.9 mph53%30.24 "HgN/A
10:50 AM70 °FSunny.12 mph57%30.24 "Hg10 mi
10:20 AM68 °FPassing clouds.8 mph60%30.24 "HgN/A
9:50 AM68 °FPassing clouds.7 mph60%30.27 "HgN/A
9:20 AM66 °FPassing clouds.8 mph60%30.24 "HgN/A
8:50 AM64 °FPassing clouds.8 mph68%30.24 "HgN/A
8:20 AM64 °FPassing clouds.7 mph68%30.24 "HgN/A
7:50 AM63 °FSunny.6 mph73%30.24 "Hg10 mi
7:20 AM61 °FSunny.5 mph77%30.24 "Hg10 mi
6:50 AM59 °FSunny.3 mph82%30.24 "Hg10 mi
Weather by CustomWeather, © 2015

See weather overviewHow to use our weather pages